Weather WX

World > North America > United States > Ohio

Conneaut, Ohio Regional Weather

Lat: 41.93N, Lon: 80.57W
Wx Zone: OHZ089
Warning FLW WEATHER ALERT - (More Info. Click Here) Warning
Feedback

Conneaut, OH Regional Weather

Expires:201907161700;;735608
ASUS41 KCLE 161602
RWRCLE
OHIO REGIONAL WEATHER ROUNDUP
NATIONAL WEATHER SERVICE CLEVELAND, OH
1200 PM EDT TUE JUL 16 2019

NOTE: "FAIR" INDICATES FEW OR NO CLOUDS BELOW 12,000 FEET WITH NO
SIGNIFICANT WEATHER AND/OR OBSTRUCTIONS TO VISIBILITY.


OHZ009>014-019>023-028>033-038-089-161700-
   NORTHEAST OHIO
  
CITY           SKY/WX    TMP DP  RH WIND       PRES   REMARKS
CLE-HOPKINS    CLOUDY    83  67  58 SW9       30.07S                  
CLE-LAKEFRONT  CLOUDY    84  66  54 SW13      30.03S                  
CUY CO. ARPT   CLOUDY    84  70  61 SW9       30.06R                  
LORAIN-ELYRIA  CLOUDY    81  63  54 SW13      30.07R                  
ASHTABULA      FAIR      81  72  74 SW8       30.07S                  
AKRON-CANTON   CLOUDY    81  69  67 SW10      30.10S                  
WOOSTER        CLOUDY    78  70  76 SW9       30.10S                  
MANSFIELD      CLOUDY    81  70  69 S8        30.10R                  
YOUNGSTOWN     CLOUDY    84  68  58 SW10      30.09S                  
$$


SKY/WX - Weather  TMP - Temperature  DP - Dew Point  RH - Relative Humidity
WIND - Wind Direction/Speed PRES - Barometric Pressure VSB - Visibility
WCI - Wind Chill Index E13G22 Wind - East Wind 13 mph/Gusts of 22 mph